Weather in Pivovarikha

Russia / Irkutsk Oblast     52°16′24″N   104°26′58″E
temp.,
°C
wind,
m/s
gust,
m/s
humid.,
%
clouds,
%
prec.,
mm/h
press.,
hPa
HPBL,
m
6 march, sat
sat623:00−17se239328 0.0 102768
02:00−16se259248 0.0 1027154
05:00−16sse359370 0.0 102899
08:00−16se339472 0.0 103088
11:00−7e12773 0.0 1029195
14:00−1s127810 0.0 1026506
17:00−1sse23810 0.0 1024349
20:00−9se23850 0.0 102537
7 march, sun
sun723:00−10se338529 0.0 102464
02:00−10se348525 0.0 102386
05:00−10se338629 0.0 102173
08:00−10sse238729 0.0 102274
11:00−3s36795 0.0 1020321
14:000sse378010 0.0 1017363
17:00−1sse377873 0.0 1016273
20:00−7se348561 0.0 101869
8 march, mon
mon823:00−7se2387100 0.0 101973
02:00−7nw1190100 0.0 102021
05:00−10sse129429 0.0 102122
08:00−10ene129422 0.0 102421
11:00−4nw35899 0.0 1024378
14:00−3nnw578652 0.4 1025762
17:00−3nnw238199 0.1 1025697
20:00−9e119064 0.1 102821
9 march, tue
tue923:00−10ese228833 0.0 102721
02:00−10se229239 0.0 102523
05:00−10se23901 0.0 102248
08:00−10se249134 0.0 102183
11:00−3s368068 0.0 1020422
14:00−1ssw238278 0.0 1020479
17:00−1s1184100 0.0 1021304
20:00−6se1193100 0.0 102521
10 march, wed
wed1023:00−8se129321 0.0 102724
02:00−8n119225 0.0 102821
05:00−10nne009648 0.0 102921
08:00−10sse119543 0.0 102921
11:00−2sse24830 0.0 1025399
14:00+1sse37770 0.0 1022650
17:00+1s26800 0.0 1019496
20:00−4sse23900 0.0 102160